GW6661 Weather Reports


Display with metric or nautical units.
time (UTC)temp
F
wind
direction
speed
MPH
gust
MPH
rain 1hr
in
rain 24hr
in
rain mn
in
humidity
%
barometer
mb
20260505114023 52 65 0.0 2.0 0.00 0.00 0.00 91 1016.8
20260505113504 52 57 1.0 2.0 0.00 0.00 0.00 91 1016.7
20260505113004 51 66 1.0 2.0 0.00 0.00 0.00 92 1016.4
20260505112503 51 93 1.0 1.0 0.00 0.00 0.00 93 1016.5
20260505112003 51 66 0.0 2.0 0.00 0.00 0.00 93 1016.4
20260505111503 51 81 1.0 1.0 0.00 0.00 0.00 94 1016.6
20260505111003 50 89 0.0 1.0 0.00 0.00 0.00 94 1016.4
20260505110503 50 63 0.0 0.0 0.00 0.00 0.00 94 1016.4
20260505102003 50 77 0.0 1.0 0.00 0.00 0.00 92 1015.8
20260505101522 50 77 0.0 1.0 0.00 0.00 0.00 91 1015.7
20260505101100 50 70 0.0 1.0 0.00 0.00 0.00 91 1015.7
20260505100522 50 66 1.0 1.0 0.00 0.00 0.00 91 1015.7
20260505100042 51 59 1.0 1.0 0.00 0.00 0.00 91 1015.7
20260505095523 51 51 2.0 2.0 0.00 0.00 0.00 91 1015.4
20260505095004 51 60 0.0 2.0 0.00 0.00 0.00 91 1015.3
20260505094504 51 76 1.0 2.0 0.00 0.00 0.00 90 1015.3
20260505094004 51 70 0.0 1.0 0.00 0.00 0.00 90 1015.2
20260505093523 51 76 0.0 1.0 0.00 0.00 0.00 90 1015.2
20260505093004 51 85 0.0 0.0 0.00 0.00 0.00 90 1015.2
20260505092503 51 89 0.0 1.0 0.00 0.00 0.00 90 1015.2
20260505092003 51 68 0.0 1.0 0.00 0.00 0.00 89 1015.4
20260505091522 51 71 1.0 1.0 0.00 0.00 0.00 89 1015.3
20260505091003 51 66 0.0 1.0 0.00 0.00 0.00 89 1015.3
20260505090503 52 63 1.0 1.0 0.00 0.00 0.00 88 1015.4
20260505090022 52 166 0.0 1.0 0.00 0.00 0.00 88 1015.5
20260505085503 52 94 0.0 1.0 0.00 0.00 0.00 88 1015.1
20260505085003 52 62 0.0 1.0 0.00 0.00 0.00 87 1015.3
20260505084522 52 76 0.0 0.0 0.00 0.00 0.00 87 1014.9
20260505084003 53 116 0.0 1.0 0.00 0.00 0.00 86 1014.9
20260505083503 53 50 1.0 2.0 0.00 0.00 0.00 85 1015.4
20260505083003 53 57 1.0 1.0 0.00 0.00 0.00 85 1015.1
20260505082504 53 89 0.0 1.0 0.00 0.00 0.00 84 1015.3
20260505082004 53 80 1.0 1.0 0.00 0.00 0.00 84 1015.1
20260505081542 54 94 1.0 2.0 0.00 0.00 0.00 84 1014.8
20260505081003 54 59 1.0 1.0 0.00 0.00 0.00 83 1015.1
20260505080503 54 111 0.0 2.0 0.00 0.00 0.00 83 1015.1
20260505080042 54 74 1.0 2.0 0.00 0.00 0.00 82 1015.0
20260505075504 55 87 1.0 1.0 0.00 0.00 0.00 81 1015.0
20260505075004 55 103 0.0 2.0 0.00 0.00 0.00 81 1015.0
20260505074523 56 46 2.0 2.0 0.00 0.00 0.00 80 1014.7
20260505074004 55 84 1.0 1.0 0.00 0.00 0.00 80 1014.8
20260505073504 56 51 1.0 1.0 0.00 0.00 0.00 79 1014.7
20260505073004 56 103 0.0 1.0 0.00 0.00 0.00 79 1014.8
20260505072522 56 157 0.0 1.0 0.00 0.00 0.00 78 1014.7
20260505072003 56 154 0.0 2.0 0.00 0.00 0.00 77 1014.8
20260505071503 57 136 1.0 1.0 0.00 0.00 0.00 77 1014.6
20260505071005 57 80 0.0 1.0 0.00 0.00 0.00 75 1014.5
20260505070522 58 113 0.0 2.0 0.00 0.00 0.00 75 1014.6
20260505070003 58 105 0.0 2.0 0.00 0.00 0.00 75 1014.7
20260505065503 58 89 0.0 1.0 0.00 0.00 0.00 74 1014.6
20260505065003 59 5 0.0 1.0 0.00 0.00 0.00 73 1014.4
20260505064522 59 111 1.0 2.0 0.00 0.00 0.00 72 1014.6
20260505064003 59 60 0.0 1.0 0.00 0.00 0.00 72 1014.4
20260505063522 59 89 0.0 1.0 0.00 0.00 0.00 72 1014.4
20260505063003 59 41 0.0 2.0 0.00 0.00 0.00 71 1014.7
20260505062503 59 98 1.0 2.0 0.00 0.00 0.00 71 1014.6
20260505062003 60 358 2.0 3.0 0.00 0.00 0.00 71 1014.4
20260505061504 60 105 1.0 2.0 0.00 0.00 0.00 71 1014.4
20260505061003 60 61 1.0 3.0 0.00 0.00 0.00 71 1014.6
20260505060503 60 79 0.0 2.0 0.00 0.00 0.00 70 1014.7
20260505060003 60 300 0.0 3.0 0.00 0.00 0.00 70 1014.6
20260505055503 60 106 1.0 3.0 0.00 0.00 0.00 70 1014.5
20260505055003 60 151 1.0 3.0 0.00 0.00 0.00 70 1014.7
20260505054504 60 87 1.0 2.0 0.00 0.00 0.00 71 1014.7
20260505054003 59 76 0.0 2.0 0.00 0.00 0.00 71 1014.6
20260505053503 60 141 0.0 1.0 0.00 0.00 0.00 71 1014.9
20260505053022 60 77 0.0 2.0 0.00 0.00 0.00 71 1014.8
20260505052503 59 149 1.0 2.0 0.00 0.00 0.00 71 1014.6
20260505052003 59 105 0.0 1.0 0.00 0.00 0.00 72 1014.7
20260505051523 60 51 0.0 1.0 0.00 0.00 0.00 71 1014.8
20260505051022 60 219 1.0 2.0 0.00 0.00 0.00 71 1014.9
20260505050503 59 62 0.0 1.0 0.00 0.00 0.00 71 1014.7
20260505041542 59 122 1.0 2.0 0.00 0.00 0.00 69 1014.9
20260505041023 58 40 1.0 2.0 0.00 0.00 0.00 71 1014.9
20260505040504 58 116 0.0 2.0 0.00 0.00 0.00 70 1014.9
20260505040004 58 129 0.0 0.0 0.00 0.00 0.00 71 1014.8
20260505035504 58 30 0.0 1.0 0.00 0.00 0.00 70 1014.9
20260505035004 58 37 0.0 1.0 0.00 0.00 0.00 69 1014.9
20260505034503 59 89 0.0 1.0 0.00 0.00 0.00 69 1014.9
20260505034004 59 77 1.0 2.0 0.00 0.00 0.00 67 1014.8
20260505033541 59 80 1.0 2.0 0.00 0.00 0.00 66 1014.8
20260505033003 59 76 0.0 1.0 0.00 0.00 0.00 66 1014.9
20260505032503 59 53 2.0 2.0 0.00 0.00 0.00 65 1014.8
20260505032003 60 313 0.0 1.0 0.00 0.00 0.00 64 1015.1
20260505031522 59 269 0.0 2.0 0.00 0.00 0.00 64 1014.9
20260505031022 59 13 0.0 2.0 0.00 0.00 0.00 65 1014.9
20260505030503 59 89 0.0 1.0 0.00 0.00 0.00 64 1014.9
20260505030004 59 54 1.0 1.0 0.00 0.00 0.00 65 1015.0
20260505025503 59 89 0.0 2.0 0.00 0.00 0.00 64 1015.1
20260505025004 59 32 0.0 1.0 0.00 0.00 0.00 65 1015.0
20260505024503 59 44 0.0 1.0 0.00 0.00 0.00 64 1014.8
20260505024003 59 23 1.0 2.0 0.00 0.00 0.00 65 1014.9
20260505023503 59 64 0.0 1.0 0.00 0.00 0.00 65 1014.8
20260505023003 59 50 1.0 1.0 0.00 0.00 0.00 64 1014.5
20260505022503 59 95 0.0 2.0 0.00 0.00 0.00 63 1014.5
20260505022022 59 95 0.0 1.0 0.00 0.00 0.00 62 1014.6
20260505021503 59 122 0.0 1.0 0.00 0.00 0.00 62 1014.6
20260505021003 59 37 0.0 1.0 0.00 0.00 0.00 62 1014.6
20260505020503 59 89 0.0 1.0 0.00 0.00 0.00 62 1014.4
20260505020022 60 49 0.0 0.0 0.00 0.00 0.00 60 1014.4
20260505015522 60 66 0.0 0.0 0.00 0.00 0.00 60 1014.4
20260505015003 60 55 0.0 0.0 0.00 0.00 0.00 60 1014.2
20260505014503 60 35 1.0 2.0 0.00 0.00 0.00 57 1014.3
20260505014022 60 126 0.0 2.0 0.00 0.00 0.00 57 1014.3
20260505013503 61 114 0.0 1.0 0.00 0.00 0.00 56 1014.2
20260505013003 61 41 0.0 1.0 0.00 0.00 0.00 55 1013.9
20260505012503 61 130 1.0 1.0 0.00 0.00 0.00 54 1014.0
20260505012003 62 135 0.0 1.0 0.00 0.00 0.00 54 1013.8
20260505011503 62 124 0.0 0.0 0.00 0.00 0.00 53 1013.8
20260505011003 62 129 0.0 0.0 0.00 0.00 0.00 53 1013.7
20260505010503 63 49 0.0 2.0 0.00 0.00 0.00 54 1013.6
20260505010022 63 68 1.0 1.0 0.00 0.00 0.00 52 1013.7
20260505005503 63 93 0.0 0.0 0.00 0.00 0.00 50 1013.3
20260505005004 64 50 0.0 1.0 0.00 0.00 0.00 50 1013.5
20260505004503 64 325 0.0 0.0 0.00 0.00 0.00 49 1013.4
20260505004003 64 99 0.0 1.0 0.00 0.00 0.00 48 1013.3
20260505003503 65 89 0.0 1.0 0.00 0.00 0.00 50 1013.1
20260505003003 65 157 0.0 0.0 0.00 0.00 0.00 50 1013.0
20260505002503 66 164 0.0 1.0 0.00 0.00 0.00 49 1013.1
20260505002003 66 142 0.0 0.0 0.00 0.00 0.00 52 1012.9
20260505001503 67 142 0.0 0.0 0.00 0.00 0.00 49 1013.1
20260505001003 68 205 0.0 1.0 0.00 0.00 0.00 46 1012.8
20260505000503 68 217 0.0 1.0 0.00 0.00 0.00 44 1012.6
20260505000003 69 148 0.0 1.0 0.00 0.00 0.00 43 1012.7
20260504235503 70 165 0.0 1.0 0.00 0.00 0.00 41 1012.4
20260504235022 71 66 0.0 0.0 0.00 0.00 0.00 38 1012.2
20260504234503 72 144 0.0 1.0 0.00 0.00 0.00 38 1012.4
20260504234003 73 283 0.0 1.0 0.00 0.00 0.00 31 1012.4
20260504233522 74 274 0.0 2.0 0.00 0.00 0.00 35 1012.4
20260504233003 74 277 1.0 2.0 0.00 0.00 0.00 33 1012.3
20260504232503 74 15 0.0 2.0 0.00 0.00 0.00 30 1012.2
20260504232003 75 243 0.0 2.0 0.00 0.00 0.00 31 1012.2
20260504231541 75 15 0.0 1.0 0.00 0.00 0.00 33 1012.3
20260504231003 75 251 2.0 2.0 0.00 0.00 0.00 35 1012.0
20260504230503 76 235 0.0 1.0 0.00 0.00 0.00 37 1012.1
20260504230003 76 220 2.0 2.0 0.00 0.00 0.00 30 1011.8
20260504225503 77 233 0.0 1.0 0.00 0.00 0.00 33 1011.9
20260504225003 77 272 0.0 1.0 0.00 0.00 0.00 29 1012.1
20260504224503 78 257 2.0 2.0 0.00 0.00 0.00 30 1011.9
20260504224003 78 184 0.0 2.0 0.00 0.00 0.00 31 1012.0
20260504223503 79 251 1.0 2.0 0.00 0.00 0.00 31 1012.0
20260504223022 79 249 2.0 2.0 0.00 0.00 0.00 27 1011.8
20260504222503 79 348 1.0 2.0 0.00 0.00 0.00 27 1011.9
20260504222003 80 194 1.0 3.0 0.00 0.00 0.00 26 1011.9
20260504221503 82 204 2.0 3.0 0.00 0.00 0.00 25 1011.8
20260504221022 83 324 1.0 2.0 0.00 0.00 0.00 25 1012.0
20260504220503 83 227 1.0 2.0 0.00 0.00 0.00 24 1012.0
20260504220003 83 89 0.0 4.0 0.00 0.00 0.00 24 1012.0
20260504215503 83 230 2.0 4.0 0.00 0.00 0.00 25 1012.0
20260504215003 83 265 0.0 2.0 0.00 0.00 0.00 24 1011.7
20260504214503 83 190 0.0 2.0 0.00 0.00 0.00 25 1011.9
20260504214003 82 268 1.0 2.0 0.00 0.00 0.00 27 1012.0
20260504213503 82 240 0.0 5.0 0.00 0.00 0.00 26 1012.0
20260504213022 83 97 2.0 3.0 0.00 0.00 0.00 26 1012.1
20260504212503 83 282 1.0 4.0 0.00 0.00 0.00 25 1012.0
20260504212022 83 283 2.0 3.0 0.00 0.00 0.00 26 1011.9
20260504211503 84 331 0.0 3.0 0.00 0.00 0.00 26 1012.0
20260504211003 83 224 2.0 3.0 0.00 0.00 0.00 28 1012.0
20260504210503 83 294 1.0 3.0 0.00 0.00 0.00 26 1012.1
20260504210003 84 250 3.0 3.0 0.00 0.00 0.00 27 1012.0
20260504205503 83 311 1.0 4.0 0.00 0.00 0.00 26 1012.1
20260504205003 83 184 0.0 3.0 0.00 0.00 0.00 26 1012.2
20260504204503 83 171 1.0 5.0 0.00 0.00 0.00 25 1012.0
20260504204003 84 287 2.0 4.0 0.00 0.00 0.00 27 1012.2
20260504203522 83 129 2.0 5.0 0.00 0.00 0.00 26 1012.3
20260504203022 83 323 0.0 4.0 0.00 0.00 0.00 27 1012.2
20260504202504 84 134 4.0 4.0 0.00 0.00 0.00 27 1012.4
20260504202004 84 291 0.0 3.0 0.00 0.00 0.00 27 1012.3
20260504201523 83 357 2.0 5.0 0.00 0.00 0.00 27 1012.4
20260504201004 82 19 1.0 4.0 0.00 0.00 0.00 27 1012.5
20260504200542 83 286 1.0 3.0 0.00 0.00 0.00 27 1012.6
20260504200004 83 278 2.0 4.0 0.00 0.00 0.00 29 1012.7
20260504195504 83 175 2.0 3.0 0.00 0.00 0.00 27 1012.6
20260504195004 83 58 1.0 2.0 0.00 0.00 0.00 27 1012.8
20260504194504 82 324 0.0 2.0 0.00 0.00 0.00 27 1013.0
20260504194004 82 187 1.0 4.0 0.00 0.00 0.00 28 1012.8
20260504193504 83 281 3.0 4.0 0.00 0.00 0.00 28 1012.8
20260504193042 82 97 5.0 7.0 0.00 0.00 0.00 27 1012.9
20260504192503 81 105 1.0 3.0 0.00 0.00 0.00 27 1012.9
20260504192003 80 188 3.0 4.0 0.00 0.00 0.00 28 1013.1
20260504191503 81 320 3.0 7.0 0.00 0.00 0.00 28 1013.3
20260504191003 82 66 0.0 3.0 0.00 0.00 0.00 28 1013.1
20260504190504 82 287 0.0 4.0 0.00 0.00 0.00 29 1013.3
20260504190004 81 163 2.0 3.0 0.00 0.00 0.00 28 1013.4
20260504185503 80 205 2.0 7.0 0.00 0.00 0.00 28 1013.5
20260504185003 80 237 3.0 4.0 0.00 0.00 0.00 28 1013.4
20260504184503 81 175 4.0 6.0 0.00 0.00 0.00 28 1013.5
20260504184022 81 68 2.0 4.0 0.00 0.00 0.00 28 1013.7
20260504183522 81 189 3.0 5.0 0.00 0.00 0.00 28 1013.8
20260504183003 79 306 1.0 3.0 0.00 0.00 0.00 29 1013.7
20260504182503 80 96 1.0 4.0 0.00 0.00 0.00 28 1013.7
20260504182003 80 137 3.0 5.0 0.00 0.00 0.00 29 1013.8
20260504181503 79 201 4.0 4.0 0.00 0.00 0.00 31 1013.9
20260504181041 79 191 2.0 3.0 0.00 0.00 0.00 31 1013.6
20260504180522 78 182 2.0 4.0 0.00 0.00 0.00 31 1013.9
20260504180022 78 89 0.0 4.0 0.00 0.00 0.00 29 1014.1
20260504175503 78 85 2.0 3.0 0.00 0.00 0.00 29 1014.1
20260504175003 77 123 3.0 5.0 0.00 0.00 0.00 31 1014.0
20260504174503 77 187 3.0 4.0 0.00 0.00 0.00 31 1013.9
20260504174041 77 89 2.0 7.0 0.00 0.00 0.00 32 1014.1
20260504173522 78 171 2.0 7.0 0.00 0.00 0.00 32 1013.9
20260504173041 78 210 2.0 4.0 0.00 0.00 0.00 30 1014.3
20260504172522 77 67 2.0 3.0 0.00 0.00 0.00 30 1014.3
20260504172003 77 218 2.0 4.0 0.00 0.00 0.00 30 1014.6
20260504171503 76 359 1.0 4.0 0.00 0.00 0.00 31 1014.7
20260504171003 76 108 0.0 4.0 0.00 0.00 0.00 30 1014.9
20260504170503 76 216 0.0 3.0 0.00 0.00 0.00 32 1014.9
20260504151004 70 55 0.0 3.0 0.00 0.00 0.00 46 1016.1
20260504150504 70 158 0.0 3.0 0.00 0.00 0.00 48 1016.2
20260504141003 64 58 2.0 2.0 0.00 0.00 0.00 60 1016.5
20260504140523 63 37 1.0 3.0 0.00 0.00 0.00 60 1016.5
20260504130503 56 110 2.0 3.0 0.00 0.00 0.00 76 1016.9